NOAA 1

Satellite information

Favourite Embed

Satellite Type and Status

PAYLOADIN ORBIT

Key statistics

Satellite NOAA 1 at a glance.

Uptime

20050

Days in orbit

Revolutions

≈ 12.5

Per day

Orbit

SSO

Sun Synchronous Orbit

Inclination

101.4

Latest

Satellite identification and parameters

Extended collection of information and parameters for NOAA 1.

Object identification

Identified? True

Debris? False

Object name: NOAA 1

International designator: 1970-106A

Object number (NORAD): 4793

Object ID (CCSDS): 4793

Country: UNITED STATES OF AMERICA (US)

Current information (Y/N): Y

RCS size: LARGE

Orbital parameters

Period: 114.828 minutes

Inclination: 101.3731 deg

SMA: 7825.753 km

Apoapsis: 1472.558 km

Periapsis: 1422.679 km

RAAN: 344.8951 deg

Eccentricy: 0.00318684

Argument of periapsis: 73.5622 deg

Mean anomaly: 96.0752 deg

Mean motion: 12.54046242 rev/day

Mean motion (dot): -0.00000032 rev/day2

B* drag term: 0.000069195533 1/REarth

Two-line elements (TLE)

Creation date: Nov. 1, 2025, 7:40 p.m.

Reference frame: TEME

Reference center: EARTH

Epoch: Nov. 1, 2025, 1:13 p.m. UTC

TLE line 0: 0 NOAA 1

TLE line 1: 1 04793U 70106A 25305.55117804 -.00000032 00000-0 69196-4 0 9994

TLE line 2: 2 04793 101.3731 344.8951 0031868 73.5622 96.0752 12.54046242512159

Live tracking on map

Real-time ground track for satellite NOAA 1.

In-orbit conjunctions

A list of the most updated potential collisions computed for object NOAA 1.

Target Orbit TCA Probability of collision Miss distance Type
COSMOS 1823 DEB LEO 2025-05-21 03:30:35 0.0002288389 39.0 (m) DEBRIS

Associated space launch

Sun-synchronous meteorological satellite

NOAA 1 was lifted into orbit during the mission ‘Thor Delta N6 | NOAA 1’, on board a Thor Delta N6 space rocket.

The launch took place on Dec. 11, 1970, 11:35 a.m. from Space Launch Complex 2W.

For more information about the launch, click the button.

Launch to space Thor Delta N6 | NOAA 1
Thor Delta N6 | NOAA 1

Agency: N/A

Status: Launch Successful

Launch date: Dec. 11, 1970, 11:35 a.m. UTC

Rocket: Thor Delta N6

Launch pad: Space Launch Complex 2W

Location: Vandenberg SFB, CA, USA

...

Latest news about this satellite

There are no fresh news available about this satellite. Check back as we update our databases every day.


Newsletter sign-up

Weekly statistics, charts and insights to help you stay on top of the space industry.